Temperature
9 10 10 11 12 12 12 12 13 12 11 11 12 13 14 14 12 13 13 13 12 12 11 11 10 10 10 11 11 11 11 11 11 10 10 10 10 10 10 10 10 10 10 10
9 9 11 11 11 10 11 11 12 11 10 11 12 12 13 13 13 12 13 13 12 11 11 10 10 10 10 10 10 10 10 10 10 10 10 10 10 10 10 10 10 10 10 9
9 10 10 10 9 9 10 11 11 11 10 10 10 13 14 13 12 11 11 11 11 11 10 10 9 9 10 10 10 10 10 10 10 10 10 10 10 10 9 9 9 9 9 9
9 9 8 9 9 10 10 10 10 10 10 11 11 12 14 13 12 12 12 11 11 10 10 9 9 9 9 9 9 10 10 10 10 9 9 9 9 9 9 9 9 9 9 8
9 8 8 9 9 10 10 9 9 9 10 10 10 10 14 12 12 12 12 11 10 9 9 8 9 9 9 9 9 9 9 9 9 9 9 9 9 9 9 8 8 8 8 8
8 8 8 9 8 9 8 8 8 9 9 9 11 11 13 13 12 12 12 11 9 8 8 8 8 8 8 8 9 9 9 9 9 9 8 8 8 8 8 8 8 8 7 8
7 7 7 8 7 7 8 9 9 9 8 10 10 10 13 12 11 11 11 10 8 7 7 7 7 8 8 8 8 8 8 8 8 8 8 8 8 8 8 7 7 7 7 7
7 7 7 7 8 8 8 9 9 10 11 11 9 10 12 11 10 9 9 8 7 7 7 7 7 7 7 7 8 8 8 8 8 8 7 7 7 7 7 7 7 7 7 7
7 7 7 7 7 8 8 8 9 9 8 9 11 11 11 10 10 9 9 8 7 7 6 6 6 7 7 7 7 7 7 7 7 7 7 7 7 7 7 7 7 6 6 6
6 5 6 6 7 7 8 8 8 8 8 10 11 11 12 10 10 9 9 8 7 6 6 6 6 6 7 7 7 7 7 7 7 7 7 7 6 6 6 6 6 6 6 6
5 5 5 6 6 7 6 6 7 8 8 9 10 11 10 10 9 9 9 8 7 6 6 5 6 6 6 6 6 6 6 6 6 6 6 6 6 6 6 6 6 6 5 5
4 5 5 5 5 6 7 7 7 7 6 7 10 10 9 9 8 8 8 7 6 6 5 5 6 6 6 6 6 6 6 6 6 6 6 6 6 5 5 5 5 5 5 5
4 4 4 5 4 4 4 5 5 5 6 7 8 9 8 8 8 7 7 6 6 5 5 5 5 5 5 5 5 5 5 5 5 5 5 5 5 5 5 5 5 5 5 5
4 3 4 6 6 5 4 4 4 5 6 6 7 8 8 8 7 7 6 6 5 5 4 4 4 5 5 5 5 5 5 5 5 5 5 5 5 5 5 5 5 4 4 4
3 3 3 4 4 4 4 4 4 4 5 6 7 7 7 7 7 6 6 5 4 4 4 4 4 4 4 4 4 4 4 4 4 4 4 4 4 4 4 4 4 4 4 3
2 2 2 3 3 4 4 4 5 5 5 5 5 6 7 6 5 5 5 4 4 3 3 3 3 3 3 3 3 4 4 4 4 4 4 4 4 4 4 3 3 3 3 3
2 1 2 3 3 3 4 4 4 5 5 5 5 6 5 5 4 4 3 3 2 2 2 2 2 2 2 3 3 3 3 3 3 3 3 3 3 3 3 3 3 3 3 3
1 1 2 2 2 2 5 4 4 4 4 4 4 4 4 4 3 2 2 2 2 2 1 2 2 2 2 2 2 3 3 3 3 3 3 3 2 3 3 2 2 2 2 2
1 1 2 2 2 3 4 3 3 3 3 3 3 3 3 2 2 2 1 1 1 1 1 1 1 1 1 1 2 2 2 2 2 2 2 2 2 2 2 2 2 2 1 1
-0 0 1 1 2 3 3 3 2 3 3 3 3 3 2 2 3 3 1 1 1 1 1 1 1 1 1 1 1 1 1 1 1 1 1 1 1 1 1 1 1 1 1 1
-0 0 0 1 2 3 3 2 2 3 3 2 2 2 2 2 2 1 0 0 0 0 0 0 0 0 0 0 0 0 0 1 1 1 1 1 1 1 1 1 1 0 0 0
1 1 0 1 1 2 2 1 2 2 2 1 1 1 1 0 0 -0 -0 -0 -0 -0 -0 -0 -0 -0 -0 -0 -0 -0 -0 -0 0 0 0 0 0 0 0 0 -0 -0 -0 -1
0 1 1 1 2 1 0 1 1 1 1 1 0 0 -0 -1 -1 -1 -1 -1 -1 -1 -1 -1 -1 -1 -1 -1 -1 -1 -1 -0 -0 -0 -0 -0 -0 -0 -0 -1 -1 -1 -1 -1
-0 -1 0 0 1 0 -0 -1 -0 -0 -0 -0 -0 -0 -1 -1 -1 -1 -1 -1 -1 -1 -1 -1 -1 -1 -1 -1 -1 -1 -1 -1 -1 -1 -1 -1 -1 -1 -1 -1 -1 -2 -2 -2
-0 -1 -0 -0 0 0 -1 -1 -1 -1 -1 -1 -1 -1 -1 -1 -2 -2 -2 -2 -2 -2 -2 -2 -2 -2 -2 -2 -2 -2 -1 -1 -1 -1 -1 -2 -2 -2 -2 -2 -2 -2 -2 -2
-1 -1 -0 0 -0 -0 -1 -2 -2 -2 -2 -2 -2 -2 -2 -2 -2 -2 -2 -2 -2 -2 -2 -2 -3 -3 -2 -2 -2 -2 -2 -2 -2 -2 -2 -2 -2 -2 -2 -3 -2 -2 -2 -2
Wind_Speed
7 9 12 14 16 9 7 9 9 6 3 7 12 15 14 12 11 12 12 11 11 11 10 8 8 8 8 8 8 8 8 7 6 5 5 5 5 4 4 4 5 6 5 5
7 14 14 9 10 11 10 11 10 6 3 5 10 16 15 13 13 13 13 12 11 10 8 8 8 7 8 9 8 8 8 8 7 6 5 4 5 4 4 4 5 6 6 6
14 5 8 10 11 13 13 14 11 8 4 5 8 11 11 9 9 9 10 10 9 9 9 8 8 8 8 8 8 7 8 7 7 6 4 4 4 4 5 5 5 5 6 6
12 9 7 11 13 13 11 9 9 8 6 5 4 7 7 6 7 8 8 7 8 7 7 7 7 7 8 8 7 7 7 7 7 6 6 7 6 6 6 5 5 6 6 6
9 9 10 12 11 12 6 3 6 8 8 8 8 7 7 5 8 7 6 6 5 5 6 6 6 6 6 6 6 6 6 6 6 7 7 7 7 6 5 5 6 6 5 6
7 5 7 8 5 8 6 4 3 4 6 8 11 11 8 6 7 6 5 4 3 2 4 4 4 5 5 5 5 5 6 6 6 6 7 7 8 7 7 6 6 5 5 5
7 8 5 5 6 8 8 7 5 5 7 8 6 9 8 3 4 5 4 3 1 1 2 3 4 4 4 4 4 5 6 5 5 6 6 7 8 8 8 7 6 6 6 6
8 8 9 8 9 9 13 11 7 7 7 5 6 9 4 1 2 3 3 2 1 1 1 2 2 3 4 4 4 4 5 5 5 5 5 5 6 6 6 7 7 7 7 7
6 5 3 6 5 8 9 11 6 2 1 4 6 6 4 3 3 3 2 1 1 2 1 1 1 1 3 3 4 4 5 5 5 4 4 5 5 5 6 6 7 7 7 7
3 4 4 4 4 4 5 7 6 6 6 7 7 7 5 6 5 3 1 1 2 2 2 1 1 1 1 2 3 3 4 4 4 4 4 4 4 5 5 6 7 7 8 8
4 4 3 6 9 10 7 7 6 6 5 6 6 4 1 4 4 3 1 1 1 2 1 1 1 1 1 1 2 2 2 3 3 3 3 4 4 5 5 5 6 7 7 8
5 4 4 4 1 3 7 8 7 6 6 5 6 3 3 2 3 1 1 2 2 2 2 2 2 2 1 1 2 2 2 3 3 3 3 4 4 5 5 6 6 7 8 8
5 4 3 3 3 2 4 5 6 3 3 6 8 4 3 2 1 2 2 3 3 3 3 3 3 3 2 2 2 2 2 2 2 3 3 4 4 5 5 6 6 6 7 7
4 4 5 6 2 4 5 7 8 7 7 8 11 8 5 3 3 3 3 3 3 3 3 4 4 4 3 3 3 3 3 3 3 3 3 4 5 5 6 6 6 6 6 6
2 4 5 5 4 4 7 10 11 12 11 10 10 11 9 7 5 4 3 3 3 3 3 4 5 5 4 4 4 4 4 3 3 3 4 5 5 5 5 5 6 6 6 6
2 3 4 5 5 5 8 11 14 15 14 14 13 13 7 4 3 3 3 3 3 4 4 5 6 6 5 5 5 5 4 4 3 4 4 4 5 5 5 5 5 6 6 6
3 4 4 5 3 3 8 9 11 9 10 12 13 9 3 3 3 3 3 3 3 4 5 5 6 6 6 6 5 5 5 4 4 4 4 4 4 5 5 5 5 5 6 5
5 4 3 3 3 7 2 1 4 7 7 7 5 4 4 3 2 2 2 2 3 4 5 5 5 6 6 6 6 5 4 4 4 4 4 4 4 5 5 5 5 5 5 5
7 5 4 4 5 6 4 2 2 5 5 5 6 4 2 1 0 1 1 2 3 4 4 5 5 5 6 5 5 4 4 4 4 4 5 5 5 5 5 5 5 5 5 6
4 5 4 4 5 5 2 1 1 3 4 2 4 4 3 2 3 1 1 2 3 3 4 4 5 5 5 5 5 4 5 5 5 5 6 6 5 5 5 5 6 5 5 5
4 4 6 6 6 4 2 2 2 4 1 1 3 3 3 3 3 1 2 3 3 3 4 4 4 4 5 5 4 4 5 5 6 6 6 6 5 5 5 5 5 5 5 5
5 5 5 5 6 5 0 2 3 2 2 1 2 2 2 1 1 1 2 3 3 3 4 4 4 5 5 5 5 5 6 6 6 5 5 6 5 5 4 4 4 4 4 5
4 4 3 4 3 2 1 2 3 3 3 3 2 2 2 1 1 2 3 3 3 3 4 4 4 5 5 5 5 5 6 6 6 5 5 5 5 5 4 4 4 4 4 4
2 2 3 3 4 4 4 4 4 4 4 2 1 1 2 1 2 2 3 3 3 4 4 4 5 5 6 6 5 5 6 6 5 5 5 5 5 5 4 4 3 4 4 4
3 2 3 4 5 5 4 3 3 2 1 0 0 0 1 1 2 2 3 3 4 4 4 4 4 5 6 6 6 6 6 5 6 6 5 5 5 5 4 4 4 4 4 5
3 4 4 4 4 3 3 3 2 2 2 1 1 0 1 1 2 3 3 3 4 4 4 4 5 5 6 6 6 6 6 5 5 5 5 4 4 4 4 4 4 4 5 6
Wind_Direction
187 207 215 212 214 234 235 230 239 242 237 240 249 259 263 257 245 242 237 230 228 229 226 216 212 211 211 210 208 205 206 204 203 203 208 215 223 224 227 231 237 240 244 246
196 225 229 222 216 223 229 235 244 251 238 252 269 270 268 257 242 238 238 236 231 228 222 215 213 210 211 210 209 208 208 206 208 210 213 222 231 230 233 234 236 239 242 245
215 221 210 205 206 215 228 232 238 245 272 254 281 274 248 236 229 232 237 237 232 224 220 213 211 214 213 210 208 209 209 210 210 209 209 213 229 229 231 234 238 242 246 246
230 225 200 206 213 214 231 230 231 235 245 253 250 275 248 221 223 227 227 223 225 224 223 219 216 216 214 212 208 211 209 211 211 207 212 217 230 233 239 240 245 251 251 252
218 209 207 216 220 210 219 199 214 229 239 257 234 251 258 217 228 224 215 213 218 223 225 225 221 217 215 209 206 210 209 211 213 213 217 224 238 238 241 243 248 255 254 252
235 220 220 220 210 197 162 149 168 204 222 243 230 227 256 216 222 209 204 210 214 224 230 233 227 216 211 203 202 207 208 212 214 215 219 225 239 241 242 245 249 255 256 254
224 219 209 193 178 178 185 179 186 198 212 235 191 222 248 230 224 220 216 212 210 247 236 233 227 216 209 205 206 211 211 215 216 217 224 232 242 242 243 246 249 256 259 260
213 216 199 197 200 189 196 203 207 216 225 218 196 230 239 221 232 223 226 242 263 291 280 255 237 217 210 212 214 217 221 225 228 229 233 242 247 246 247 249 252 255 259 263
215 218 179 204 209 192 188 209 227 234 264 247 223 235 253 203 190 187 197 238 296 323 325 301 263 216 211 214 221 226 228 233 234 241 243 250 250 250 252 255 257 260 262 266
220 233 201 192 188 210 218 185 183 203 215 235 232 232 215 187 190 178 173 349 349 344 339 335 303 294 240 224 232 238 237 234 239 243 247 249 254 256 257 261 263 264 266 268
219 212 193 189 203 196 183 191 201 200 227 233 235 222 165 206 185 183 219 344 352 351 344 2 346 333 297 251 244 254 259 249 249 255 257 260 267 267 266 267 268 269 271 272
202 212 221 211 203 260 214 204 195 205 211 223 243 238 78 144 154 182 331 347 351 359 1 11 5 3 344 307 297 285 283 268 263 262 264 268 275 277 274 274 275 276 276 276
181 190 200 189 182 182 211 209 207 209 207 217 226 222 111 116 110 338 339 342 343 351 2 5 3 2 353 333 328 312 300 294 282 274 275 278 282 284 284 286 288 286 283 284
195 201 226 233 237 194 214 210 201 201 219 228 235 241 239 261 291 324 332 334 335 339 341 345 345 345 341 336 334 319 312 308 302 293 286 284 288 290 292 292 293 291 288 286
195 216 230 254 257 234 237 227 216 220 228 235 243 246 254 262 276 296 311 329 336 331 331 333 334 336 333 328 326 323 312 308 308 298 290 287 290 292 292 289 291 292 289 284
198 212 215 244 246 250 258 244 231 232 233 237 249 259 260 254 263 283 299 313 319 327 332 334 334 334 330 321 319 317 308 306 305 296 291 293 296 299 294 293 295 294 290 287
190 180 196 234 234 260 252 240 228 225 224 227 239 245 227 247 254 284 306 316 321 326 330 331 329 327 326 323 315 309 306 303 301 297 295 295 298 298 295 296 299 297 294 291
189 181 199 214 203 231 249 347 224 221 232 230 237 245 238 247 278 297 304 310 325 328 327 326 327 329 327 324 322 320 316 308 306 304 303 304 301 297 298 300 301 301 298 291
212 194 198 202 225 257 266 276 223 224 249 237 228 232 225 172 264 270 325 320 325 327 327 326 329 329 328 329 331 330 327 324 320 316 312 307 300 294 296 298 300 304 304 298
190 199 204 204 223 238 260 327 286 237 249 212 202 201 198 212 247 261 356 340 334 336 337 332 331 333 333 333 334 331 327 327 324 321 314 307 300 293 292 296 300 301 300 300
169 189 210 220 231 257 287 293 199 217 259 151 199 200 203 238 277 287 310 315 320 331 341 337 329 330 330 329 328 322 321 319 318 317 313 309 306 301 298 301 301 302 302 301
191 190 199 206 221 243 171 174 211 297 330 280 230 217 215 253 271 271 294 310 320 328 339 338 334 333 333 334 332 323 319 317 317 315 309 309 310 309 304 303 306 306 304 302
213 220 212 211 237 319 273 258 296 300 287 284 256 222 200 217 258 289 302 312 321 325 331 332 330 327 330 334 331 321 320 322 320 316 311 311 314 312 308 306 308 310 308 302
228 241 221 240 265 285 299 297 303 296 286 284 259 215 186 215 275 296 306 314 318 322 327 329 327 325 328 332 329 321 319 320 318 314 315 316 315 314 314 313 307 305 304 301
259 202 220 251 277 290 306 306 310 325 323 296 353 176 199 213 259 284 297 306 311 316 322 323 318 316 319 324 324 326 324 322 315 312 311 311 311 308 311 312 313 307 304 300
255 241 247 269 286 281 300 328 338 351 349 336 323 310 291 267 279 292 298 305 305 308 310 309 309 311 315 318 318 322 322 316 309 306 306 306 305 306 307 312 318 326 309 316
Height
1469 1468 1463 1461 1463 1462 1462 1462 1461 1463 1468 1468 1463 1458 1456 1457 1459 1458 1458 1459 1460 1462 1464 1465 1466 1468 1469 1471 1473 1474 1476 1478 1479 1480 1481 1482 1482 1483 1483 1483 1484 1483 1483 1483
1467 1462 1458 1461 1464 1465 1464 1463 1461 1464 1467 1466 1460 1455 1451 1451 1452 1453 1454 1454 1456 1458 1459 1460 1461 1463 1464 1466 1468 1470 1471 1473 1475 1476 1477 1478 1478 1478 1479 1479 1479 1479 1479 1478
1456 1456 1459 1461 1463 1464 1462 1461 1460 1462 1465 1465 1462 1448 1443 1444 1447 1449 1450 1451 1452 1453 1455 1456 1457 1458 1460 1461 1463 1465 1466 1468 1470 1471 1472 1473 1473 1474 1474 1474 1474 1474 1474 1474
1455 1456 1459 1459 1458 1459 1459 1459 1462 1464 1464 1457 1461 1447 1435 1439 1443 1445 1446 1447 1448 1450 1451 1452 1453 1454 1455 1457 1459 1460 1462 1464 1465 1467 1467 1468 1468 1469 1469 1469 1469 1469 1469 1469
1451 1454 1455 1455 1454 1457 1457 1461 1462 1463 1462 1461 1457 1456 1433 1438 1438 1439 1441 1443 1445 1446 1447 1448 1449 1450 1451 1453 1454 1456 1458 1459 1461 1462 1463 1464 1464 1465 1465 1465 1465 1464 1464 1464
1451 1453 1453 1452 1455 1457 1461 1463 1464 1463 1461 1460 1447 1449 1430 1430 1433 1435 1439 1441 1442 1444 1444 1445 1445 1446 1448 1449 1451 1452 1454 1455 1456 1457 1458 1459 1459 1460 1460 1460 1460 1459 1459 1459
1450 1450 1452 1453 1454 1458 1458 1457 1457 1457 1457 1444 1444 1444 1429 1429 1433 1435 1438 1439 1441 1441 1441 1441 1442 1443 1444 1446 1447 1449 1450 1451 1452 1453 1453 1454 1455 1455 1455 1455 1455 1454 1454 1453
1444 1442 1447 1448 1447 1449 1450 1448 1446 1443 1438 1433 1446 1438 1425 1432 1435 1436 1438 1439 1439 1439 1439 1439 1439 1440 1441 1443 1444 1445 1446 1447 1448 1449 1449 1450 1450 1450 1450 1450 1450 1449 1449 1448
1441 1439 1445 1446 1447 1446 1447 1446 1444 1445 1447 1440 1430 1430 1429 1432 1433 1435 1436 1437 1437 1438 1438 1438 1438 1438 1439 1440 1441 1442 1442 1443 1444 1444 1444 1445 1446 1446 1446 1445 1445 1444 1444 1443
1444 1444 1443 1446 1447 1447 1445 1443 1448 1446 1441 1431 1423 1424 1419 1427 1429 1432 1434 1435 1436 1437 1437 1437 1437 1437 1438 1439 1439 1439 1439 1440 1440 1441 1441 1441 1441 1441 1441 1440 1440 1439 1439 1438
1445 1446 1444 1444 1442 1440 1446 1447 1443 1440 1438 1430 1422 1419 1423 1426 1429 1432 1434 1435 1436 1436 1436 1436 1436 1436 1436 1437 1437 1437 1437 1437 1437 1437 1437 1437 1437 1437 1436 1436 1435 1434 1433 1432
1444 1443 1440 1440 1444 1443 1440 1440 1441 1440 1441 1436 1425 1424 1428 1429 1431 1433 1434 1435 1435 1436 1435 1435 1435 1435 1435 1435 1435 1435 1434 1434 1434 1434 1434 1433 1433 1433 1432 1431 1430 1429 1428 1427
1442 1443 1439 1437 1445 1447 1444 1443 1443 1443 1441 1436 1429 1426 1430 1431 1432 1434 1434 1435 1435 1435 1435 1435 1434 1434 1434 1433 1433 1432 1431 1431 1431 1430 1430 1430 1429 1429 1427 1426 1425 1424 1423 1421
1440 1440 1436 1429 1429 1436 1441 1442 1443 1443 1439 1434 1428 1424 1428 1430 1431 1433 1434 1435 1435 1435 1435 1434 1434 1433 1433 1432 1431 1430 1429 1428 1428 1427 1426 1426 1425 1424 1423 1422 1421 1419 1418 1416
1438 1437 1437 1436 1435 1436 1436 1436 1438 1439 1434 1432 1425 1427 1427 1429 1431 1433 1434 1435 1435 1435 1434 1433 1433 1432 1431 1430 1429 1428 1426 1426 1425 1424 1423 1422 1421 1420 1419 1418 1416 1415 1413 1411
1439 1438 1438 1437 1436 1435 1434 1431 1431 1431 1431 1431 1429 1428 1428 1430 1432 1433 1434 1434 1434 1434 1433 1432 1431 1430 1429 1428 1426 1425 1424 1423 1421 1420 1419 1419 1418 1416 1415 1414 1412 1410 1408 1407
1437 1438 1436 1431 1435 1435 1429 1425 1425 1425 1425 1425 1424 1424 1428 1429 1431 1432 1433 1433 1432 1432 1431 1431 1429 1428 1427 1426 1424 1422 1421 1420 1418 1417 1416 1415 1414 1413 1411 1410 1408 1406 1404 1402
1437 1437 1435 1433 1437 1434 1421 1424 1424 1424 1424 1425 1425 1426 1427 1429 1430 1431 1432 1431 1431 1431 1430 1429 1427 1426 1424 1423 1421 1419 1418 1416 1415 1414 1413 1412 1410 1409 1408 1406 1404 1402 1400 1398
1434 1435 1434 1432 1428 1422 1423 1425 1425 1424 1423 1424 1425 1426 1428 1429 1429 1430 1431 1431 1430 1430 1429 1428 1426 1424 1422 1421 1419 1417 1415 1414 1413 1411 1410 1408 1407 1406 1404 1402 1401 1399 1397 1395
1434 1434 1433 1431 1427 1421 1420 1424 1425 1425 1421 1423 1423 1425 1426 1427 1426 1428 1430 1429 1429 1429 1428 1426 1425 1423 1421 1419 1417 1415 1413 1412 1410 1409 1407 1406 1404 1403 1401 1399 1398 1396 1394 1391
1432 1433 1432 1428 1425 1419 1423 1424 1425 1424 1420 1422 1423 1424 1425 1425 1425 1428 1428 1428 1427 1427 1426 1424 1423 1421 1419 1417 1415 1413 1411 1410 1408 1406 1405 1403 1402 1400 1398 1396 1395 1393 1391 1388
1425 1425 1428 1426 1426 1423 1423 1424 1424 1421 1422 1422 1422 1423 1424 1424 1425 1425 1426 1425 1425 1424 1423 1422 1420 1419 1417 1415 1413 1411 1409 1408 1406 1404 1402 1400 1399 1397 1396 1394 1392 1390 1388 1385
1424 1424 1422 1423 1423 1423 1424 1423 1423 1422 1422 1421 1421 1422 1422 1422 1423 1423 1423 1423 1423 1422 1421 1420 1418 1416 1415 1413 1411 1409 1407 1405 1403 1402 1400 1398 1397 1395 1393 1391 1389 1387 1385 1383
1425 1426 1425 1424 1423 1423 1423 1422 1422 1421 1421 1421 1420 1420 1420 1421 1421 1421 1421 1421 1420 1420 1419 1417 1416 1414 1412 1411 1409 1407 1405 1403 1401 1399 1398 1396 1394 1392 1391 1389 1386 1384 1382 1380
1423 1424 1423 1422 1422 1422 1421 1421 1421 1420 1420 1419 1419 1419 1419 1419 1419 1419 1419 1418 1418 1417 1416 1415 1413 1412 1410 1408 1407 1405 1403 1401 1399 1397 1395 1394 1392 1390 1388 1386 1384 1382 1380 1378
1425 1424 1422 1420 1421 1422 1422 1421 1420 1420 1419 1418 1418 1418 1418 1418 1417 1417 1416 1416 1415 1414 1413 1412 1411 1409 1407 1406 1404 1402 1400 1399 1397 1395 1393 1391 1389 1387 1385 1383 1380 1379 1377 1375